Year,Month,Day,Hour,Minute,Value (Times are PST for temperature in C)
2017,05,21,00,00,11.60
2017,05,21,00,01,11.50
2017,05,21,00,02,11.50
2017,05,21,00,03,11.50
2017,05,21,00,04,11.40
2017,05,21,00,05,11.40
2017,05,21,00,06,11.40
2017,05,21,00,07,11.40
2017,05,21,00,08,11.40
2017,05,21,00,09,11.40
2017,05,21,00,10,11.40
2017,05,21,00,11,11.40
2017,05,21,00,12,11.40
2017,05,21,00,13,11.40
2017,05,21,00,14,11.40
2017,05,21,00,15,11.30
2017,05,21,00,16,11.30
2017,05,21,00,17,11.30
2017,05,21,00,18,11.30
2017,05,21,00,19,11.30
2017,05,21,00,20,11.30
2017,05,21,00,21,11.30
2017,05,21,00,22,11.30
2017,05,21,00,23,11.20
2017,05,21,00,24,11.20
2017,05,21,00,25,11.20
2017,05,21,00,26,11.20
2017,05,21,00,27,11.20
2017,05,21,00,28,11.20
2017,05,21,00,29,11.20
2017,05,21,00,30,11.20
2017,05,21,00,31,11.20
2017,05,21,00,32,11.10
2017,05,21,00,33,11.10
2017,05,21,00,34,11.10
2017,05,21,00,35,11.10
2017,05,21,00,36,11.10
2017,05,21,00,37,11.10
2017,05,21,00,38,11.00
2017,05,21,00,39,11.00
2017,05,21,00,40,11.00
2017,05,21,00,41,10.90
2017,05,21,00,42,10.90
2017,05,21,00,43,10.90
2017,05,21,00,44,10.90
2017,05,21,00,45,10.90
2017,05,21,00,46,10.90
2017,05,21,00,47,10.80
2017,05,21,00,48,10.80
2017,05,21,00,49,10.80
2017,05,21,00,50,10.80
2017,05,21,00,51,10.80
2017,05,21,00,52,10.70
2017,05,21,00,53,10.70
2017,05,21,00,54,10.70
2017,05,21,00,55,10.70
2017,05,21,00,56,10.70
2017,05,21,00,57,10.60
2017,05,21,00,58,10.60
2017,05,21,00,59,10.60
2017,05,21,01,00,10.60
2017,05,21,01,01,10.50
2017,05,21,01,02,10.50
2017,05,21,01,03,10.50
2017,05,21,01,04,10.50
2017,05,21,01,05,10.50
2017,05,21,01,06,10.50
2017,05,21,01,07,10.50
2017,05,21,01,08,10.50
2017,05,21,01,09,10.40
2017,05,21,01,10,10.40
2017,05,21,01,11,10.40
2017,05,21,01,12,10.40
2017,05,21,01,13,10.40
2017,05,21,01,14,10.40
2017,05,21,01,15,10.40
2017,05,21,01,16,10.40
2017,05,21,01,17,10.40
2017,05,21,01,18,10.40
2017,05,21,01,19,10.30
2017,05,21,01,20,10.30
2017,05,21,01,21,10.30
2017,05,21,01,22,10.30
2017,05,21,01,23,10.30
2017,05,21,01,24,10.30
2017,05,21,01,25,10.30
2017,05,21,01,26,10.20
2017,05,21,01,27,10.30
2017,05,21,01,28,10.20
2017,05,21,01,29,10.20
2017,05,21,01,30,10.20
2017,05,21,01,31,10.20
2017,05,21,01,32,10.20
2017,05,21,01,33,10.20
2017,05,21,01,34,10.20
2017,05,21,01,35,10.20
2017,05,21,01,36,10.20
2017,05,21,01,37,10.20
2017,05,21,01,38,10.20
2017,05,21,01,39,10.10
2017,05,21,01,40,10.10
2017,05,21,01,41,10.10
2017,05,21,01,42,10.10
2017,05,21,01,43,10.10
2017,05,21,01,44,10.10
2017,05,21,01,45,10.00
2017,05,21,01,46,10.00
2017,05,21,01,47,10.00
2017,05,21,01,48,9.90
2017,05,21,01,49,9.90
2017,05,21,01,50,9.90
2017,05,21,01,51,9.90
2017,05,21,01,52,9.90
2017,05,21,01,53,9.90
2017,05,21,01,54,9.90
2017,05,21,01,55,9.80
2017,05,21,01,56,9.90
2017,05,21,01,57,9.90
2017,05,21,01,58,9.90
2017,05,21,01,59,9.80
2017,05,21,02,00,9.80
2017,05,21,02,01,9.80
2017,05,21,02,02,9.80
2017,05,21,02,03,9.80
2017,05,21,02,04,9.80
2017,05,21,02,05,9.80
2017,05,21,02,06,9.80
2017,05,21,02,07,9.80
2017,05,21,02,08,9.80
2017,05,21,02,09,9.80
2017,05,21,02,10,9.80
2017,05,21,02,11,9.70
2017,05,21,02,12,9.70
2017,05,21,02,13,9.70
2017,05,21,02,14,9.70
2017,05,21,02,15,9.70
2017,05,21,02,16,9.70
2017,05,21,02,17,9.60
2017,05,21,02,18,9.60
2017,05,21,02,19,9.60
2017,05,21,02,20,9.60
2017,05,21,02,21,9.60
2017,05,21,02,22,9.60
2017,05,21,02,23,9.60
2017,05,21,02,24,9.60
2017,05,21,02,25,9.50
2017,05,21,02,26,9.50
2017,05,21,02,27,9.50
2017,05,21,02,28,9.50
2017,05,21,02,29,9.50
2017,05,21,02,30,9.50
2017,05,21,02,31,9.40
2017,05,21,02,32,9.40
2017,05,21,02,33,9.40
2017,05,21,02,34,9.40
2017,05,21,02,35,9.40
2017,05,21,02,36,9.40
2017,05,21,02,37,9.40
2017,05,21,02,38,9.30
2017,05,21,02,39,9.30
2017,05,21,02,40,9.30
2017,05,21,02,41,9.30
2017,05,21,02,42,9.30
2017,05,21,02,43,9.30
2017,05,21,02,44,9.30
2017,05,21,02,45,9.30
2017,05,21,02,46,9.30
2017,05,21,02,47,9.30
2017,05,21,02,48,9.30
2017,05,21,02,49,9.30
2017,05,21,02,50,9.30
2017,05,21,02,51,9.20
2017,05,21,02,52,9.20
2017,05,21,02,53,9.20
2017,05,21,02,54,9.20
2017,05,21,02,55,9.20
2017,05,21,02,56,9.20
2017,05,21,02,57,9.20
2017,05,21,02,58,9.20
2017,05,21,02,59,9.20
2017,05,21,03,00,9.20
2017,05,21,03,01,9.20
2017,05,21,03,02,9.20
2017,05,21,03,03,9.20
2017,05,21,03,04,9.20
2017,05,21,03,05,9.20
2017,05,21,03,06,9.20
2017,05,21,03,07,9.20
2017,05,21,03,08,9.20
2017,05,21,03,09,9.20
2017,05,21,03,10,9.20
2017,05,21,03,11,9.20
2017,05,21,03,12,9.20
2017,05,21,03,13,9.20
2017,05,21,03,14,9.20
2017,05,21,03,15,9.20
2017,05,21,03,16,9.20
2017,05,21,03,17,9.20
2017,05,21,03,18,9.20
2017,05,21,03,19,9.10
2017,05,21,03,20,9.10
2017,05,21,03,21,9.10
2017,05,21,03,22,9.10
2017,05,21,03,23,9.10
2017,05,21,03,24,9.10
2017,05,21,03,25,9.00
2017,05,21,03,26,9.00
2017,05,21,03,27,9.00
2017,05,21,03,28,8.90
2017,05,21,03,29,8.90
2017,05,21,03,30,8.90
2017,05,21,03,31,8.90
2017,05,21,03,32,8.90
2017,05,21,03,33,8.80
2017,05,21,03,34,8.80
2017,05,21,03,35,8.80
2017,05,21,03,36,8.80
2017,05,21,03,37,8.80
2017,05,21,03,38,8.80
2017,05,21,03,39,8.80
2017,05,21,03,40,8.80
2017,05,21,03,41,8.80
2017,05,21,03,42,8.80
2017,05,21,03,43,8.80
2017,05,21,03,44,8.80
2017,05,21,03,45,8.80
2017,05,21,03,46,8.80
2017,05,21,03,47,8.80
2017,05,21,03,48,8.80
2017,05,21,03,49,8.80
2017,05,21,03,50,8.70
2017,05,21,03,51,8.70
2017,05,21,03,52,8.70
2017,05,21,03,53,8.70
2017,05,21,03,54,8.70
2017,05,21,03,55,8.70
2017,05,21,03,56,8.70
2017,05,21,03,57,8.60
2017,05,21,03,58,8.60
2017,05,21,03,59,8.60
2017,05,21,04,00,8.60
2017,05,21,04,01,8.60
2017,05,21,04,02,8.60
2017,05,21,04,03,8.60
2017,05,21,04,04,8.60
2017,05,21,04,05,8.60
2017,05,21,04,06,8.60
2017,05,21,04,07,8.50
2017,05,21,04,08,8.50
2017,05,21,04,09,8.50
2017,05,21,04,10,8.50
2017,05,21,04,11,8.40
2017,05,21,04,12,8.40
2017,05,21,04,13,8.40
2017,05,21,04,14,8.40
2017,05,21,04,15,8.40
2017,05,21,04,16,8.40
2017,05,21,04,17,8.40
2017,05,21,04,18,8.40
2017,05,21,04,19,8.40
2017,05,21,04,20,8.30
2017,05,21,04,21,8.30
2017,05,21,04,22,8.30
2017,05,21,04,23,8.30
2017,05,21,04,24,8.30
2017,05,21,04,25,8.30
2017,05,21,04,26,8.30
2017,05,21,04,27,8.30
2017,05,21,04,28,8.30
2017,05,21,04,29,8.30
2017,05,21,04,30,8.30
2017,05,21,04,31,8.30
2017,05,21,04,32,8.30
2017,05,21,04,33,8.30
2017,05,21,04,34,8.30
2017,05,21,04,35,8.30
2017,05,21,04,36,8.20
2017,05,21,04,37,8.20
2017,05,21,04,38,8.20
2017,05,21,04,39,8.20
2017,05,21,04,40,8.20
2017,05,21,04,41,8.20
2017,05,21,04,42,8.20
2017,05,21,04,43,8.20
2017,05,21,04,44,8.20
2017,05,21,04,45,8.20
2017,05,21,04,46,8.20
2017,05,21,04,47,8.20
2017,05,21,04,48,8.20
2017,05,21,04,49,8.20
2017,05,21,04,50,8.20
2017,05,21,04,51,8.20
2017,05,21,04,52,8.20
2017,05,21,04,53,8.20
2017,05,21,04,54,8.10
2017,05,21,04,55,8.10
2017,05,21,04,56,8.10
2017,05,21,04,57,8.10
2017,05,21,04,58,8.10
2017,05,21,04,59,8.00
2017,05,21,05,00,8.00
2017,05,21,05,01,8.00
2017,05,21,05,02,8.00
2017,05,21,05,03,7.90
2017,05,21,05,04,7.90
2017,05,21,05,05,7.90
2017,05,21,05,06,7.90
2017,05,21,05,07,7.90
2017,05,21,05,08,7.90
2017,05,21,05,09,7.90
2017,05,21,05,10,7.90
2017,05,21,05,11,7.90
2017,05,21,05,12,7.90
2017,05,21,05,13,7.80
2017,05,21,05,14,7.80
2017,05,21,05,15,7.80
2017,05,21,05,16,7.80
2017,05,21,05,17,7.80
2017,05,21,05,18,7.80
2017,05,21,05,19,7.80
2017,05,21,05,20,7.90
2017,05,21,05,21,7.80
2017,05,21,05,22,7.80
2017,05,21,05,23,7.80
2017,05,21,05,24,7.80
2017,05,21,05,25,7.80
2017,05,21,05,26,7.80
2017,05,21,05,27,7.80
2017,05,21,05,28,7.80
2017,05,21,05,29,7.80
2017,05,21,05,30,7.80
2017,05,21,05,31,7.80
2017,05,21,05,32,7.80
2017,05,21,05,33,7.80
2017,05,21,05,34,7.80
2017,05,21,05,35,7.80
2017,05,21,05,36,7.80
2017,05,21,05,37,7.80
2017,05,21,05,38,7.70
2017,05,21,05,39,7.70
2017,05,21,05,40,7.70
2017,05,21,05,41,7.70
2017,05,21,05,42,7.70
2017,05,21,05,43,7.70
2017,05,21,05,44,7.70
2017,05,21,05,45,7.70
2017,05,21,05,46,7.70
2017,05,21,05,47,7.70
2017,05,21,05,48,7.70
2017,05,21,05,49,7.70
2017,05,21,05,50,7.70
2017,05,21,05,51,7.70
2017,05,21,05,52,7.70
2017,05,21,05,53,7.70
2017,05,21,05,54,7.70
2017,05,21,05,55,7.70
2017,05,21,05,56,7.60
2017,05,21,05,57,7.60
2017,05,21,05,58,7.60
2017,05,21,05,59,7.60
2017,05,21,06,00,7.70
2017,05,21,06,01,7.70
2017,05,21,06,02,7.70
2017,05,21,06,03,7.70
2017,05,21,06,04,7.70
2017,05,21,06,05,7.70
2017,05,21,06,06,7.70
2017,05,21,06,07,7.70
2017,05,21,06,08,7.70
2017,05,21,06,09,7.70
2017,05,21,06,10,7.70
2017,05,21,06,11,7.70
2017,05,21,06,12,7.70
2017,05,21,06,13,7.70
2017,05,21,06,14,7.70
2017,05,21,06,15,7.70
2017,05,21,06,16,7.70
2017,05,21,06,17,7.70
2017,05,21,06,18,7.70
2017,05,21,06,19,7.70
2017,05,21,06,20,7.70
2017,05,21,06,21,7.70
2017,05,21,06,22,7.70
2017,05,21,06,23,7.70
2017,05,21,06,24,7.70
2017,05,21,06,25,7.70
2017,05,21,06,26,7.70
2017,05,21,06,27,7.70
2017,05,21,06,28,7.70
2017,05,21,06,29,7.80
2017,05,21,06,30,7.80
2017,05,21,06,31,7.80
2017,05,21,06,32,7.80
2017,05,21,06,33,7.90
2017,05,21,06,34,7.90
2017,05,21,06,35,8.00
2017,05,21,06,36,8.00
2017,05,21,06,37,8.10
2017,05,21,06,38,8.20
2017,05,21,06,39,8.20
2017,05,21,06,40,8.30
2017,05,21,06,41,8.40
2017,05,21,06,42,8.50
2017,05,21,06,43,8.60
2017,05,21,06,44,8.60
2017,05,21,06,45,8.70
2017,05,21,06,46,8.80
2017,05,21,06,47,8.90
2017,05,21,06,48,9.00
2017,05,21,06,49,9.10
2017,05,21,06,50,9.20
2017,05,21,06,51,9.20
2017,05,21,06,52,9.30
2017,05,21,06,53,9.40
2017,05,21,06,54,9.50
2017,05,21,06,55,9.60
2017,05,21,06,56,9.60
2017,05,21,06,57,9.70
2017,05,21,06,58,9.80
2017,05,21,06,59,9.80
2017,05,21,07,00,9.90
2017,05,21,07,01,10.00
2017,05,21,07,02,10.00
2017,05,21,07,03,10.10
2017,05,21,07,04,10.20
2017,05,21,07,05,10.20
2017,05,21,07,06,10.30
2017,05,21,07,07,10.40
2017,05,21,07,08,10.40
2017,05,21,07,09,10.50
2017,05,21,07,10,10.50
2017,05,21,07,11,10.60
2017,05,21,07,12,10.60
2017,05,21,07,13,10.60
2017,05,21,07,14,10.70
2017,05,21,07,15,10.80
2017,05,21,07,16,10.80
2017,05,21,07,17,10.90
2017,05,21,07,18,10.90
2017,05,21,07,19,11.00
2017,05,21,07,20,11.00
2017,05,21,07,21,11.10
2017,05,21,07,22,11.10
2017,05,21,07,23,11.20
2017,05,21,07,24,11.20
2017,05,21,07,25,11.20
2017,05,21,07,26,11.30
2017,05,21,07,27,11.30
2017,05,21,07,28,11.40
2017,05,21,07,29,11.50
2017,05,21,07,30,11.60
2017,05,21,07,31,11.70
2017,05,21,07,32,11.80
2017,05,21,07,33,11.80
2017,05,21,07,34,11.90
2017,05,21,07,35,12.00
2017,05,21,07,36,12.00
2017,05,21,07,37,12.10
2017,05,21,07,38,12.10
2017,05,21,07,39,12.20
2017,05,21,07,40,12.30
2017,05,21,07,41,12.40
2017,05,21,07,42,12.50
2017,05,21,07,43,12.50
2017,05,21,07,44,12.60
2017,05,21,07,45,12.70
2017,05,21,07,46,12.80
2017,05,21,07,47,12.90
2017,05,21,07,48,13.00
2017,05,21,07,49,13.10
2017,05,21,07,50,13.20
2017,05,21,07,51,13.40
2017,05,21,07,52,13.50
2017,05,21,07,53,13.60
2017,05,21,07,54,13.70
2017,05,21,07,55,13.80
2017,05,21,07,56,13.90
2017,05,21,07,57,14.00
2017,05,21,07,58,14.20
2017,05,21,07,59,14.30
2017,05,21,08,00,14.50
2017,05,21,08,01,14.60
2017,05,21,08,02,14.70
2017,05,21,08,03,14.80
2017,05,21,08,04,14.80
2017,05,21,08,05,14.90
2017,05,21,08,06,15.00
2017,05,21,08,07,15.10
2017,05,21,08,08,15.20
2017,05,21,08,09,15.30
2017,05,21,08,10,15.40
2017,05,21,08,11,15.50
2017,05,21,08,12,15.70
2017,05,21,08,13,15.70
2017,05,21,08,14,15.80
2017,05,21,08,15,16.00
2017,05,21,08,16,16.10
2017,05,21,08,17,16.20
2017,05,21,08,18,16.30
2017,05,21,08,19,16.30
2017,05,21,08,20,16.40
2017,05,21,08,21,16.50
2017,05,21,08,22,16.60
2017,05,21,08,23,16.70
2017,05,21,08,24,16.80
2017,05,21,08,25,16.90
2017,05,21,08,26,16.90
2017,05,21,08,27,17.00
2017,05,21,08,28,17.10
2017,05,21,08,29,17.10
2017,05,21,08,30,17.20
2017,05,21,08,31,17.20
2017,05,21,08,32,17.30
2017,05,21,08,33,17.30
2017,05,21,08,34,17.40
2017,05,21,08,35,17.40
2017,05,21,08,36,17.40
2017,05,21,08,37,17.40
2017,05,21,08,38,17.50
2017,05,21,08,39,17.50
2017,05,21,08,40,17.50
2017,05,21,08,41,17.60
2017,05,21,08,42,17.60
2017,05,21,08,43,17.60
2017,05,21,08,44,17.60
2017,05,21,08,45,17.60
2017,05,21,08,46,17.70
2017,05,21,08,47,17.70
2017,05,21,08,48,17.70
2017,05,21,08,49,17.70
2017,05,21,08,50,17.80
2017,05,21,08,51,17.80
2017,05,21,08,52,17.90
2017,05,21,08,53,17.90
2017,05,21,08,54,18.00
2017,05,21,08,55,18.10
2017,05,21,08,56,18.10
2017,05,21,08,57,18.20
2017,05,21,08,58,18.30
2017,05,21,08,59,18.30
2017,05,21,09,00,18.30
2017,05,21,09,01,18.30
2017,05,21,09,02,18.40
2017,05,21,09,03,18.50
2017,05,21,09,04,18.50
2017,05,21,09,05,18.60
2017,05,21,09,06,18.60
2017,05,21,09,07,18.60
2017,05,21,09,08,18.60
2017,05,21,09,09,18.60
2017,05,21,09,10,18.70
2017,05,21,09,11,18.70
2017,05,21,09,12,18.80
2017,05,21,09,13,18.80
2017,05,21,09,14,18.90
2017,05,21,09,15,18.90
2017,05,21,09,16,19.00
2017,05,21,09,17,19.10
2017,05,21,09,18,19.10
2017,05,21,09,19,19.20
2017,05,21,09,20,19.30
2017,05,21,09,21,19.40
2017,05,21,09,22,19.40
2017,05,21,09,23,19.50
2017,05,21,09,24,19.60
2017,05,21,09,25,19.60
2017,05,21,09,26,19.70
2017,05,21,09,27,19.80
2017,05,21,09,28,19.80
2017,05,21,09,29,19.90
2017,05,21,09,30,20.00
2017,05,21,09,31,20.10
2017,05,21,09,32,20.20
2017,05,21,09,33,20.20
2017,05,21,09,34,20.20
2017,05,21,09,35,20.20
2017,05,21,09,36,20.20
2017,05,21,09,37,20.20
2017,05,21,09,38,20.30
2017,05,21,09,39,20.30
2017,05,21,09,40,20.30
2017,05,21,09,41,20.30
2017,05,21,09,42,20.30
2017,05,21,09,43,20.30
2017,05,21,09,44,20.20
2017,05,21,09,45,20.20
2017,05,21,09,46,20.30
2017,05,21,09,47,20.30
2017,05,21,09,48,20.40
2017,05,21,09,49,20.40
2017,05,21,09,50,20.50
2017,05,21,09,51,20.50
2017,05,21,09,52,20.60
2017,05,21,09,53,20.60
2017,05,21,09,54,20.60
2017,05,21,09,55,20.50
2017,05,21,09,56,20.50
2017,05,21,09,57,20.50
2017,05,21,09,58,20.60
2017,05,21,09,59,20.60
2017,05,21,10,00,20.70
2017,05,21,10,01,20.80
2017,05,21,10,02,20.90
2017,05,21,10,03,20.90
2017,05,21,10,04,21.00
2017,05,21,10,05,21.00
2017,05,21,10,06,21.10
2017,05,21,10,07,21.10
2017,05,21,10,08,21.10
2017,05,21,10,09,21.20
2017,05,21,10,10,21.20
2017,05,21,10,11,21.20
2017,05,21,10,12,21.20
2017,05,21,10,13,21.10
2017,05,21,10,14,21.00
2017,05,21,10,15,20.90
2017,05,21,10,16,20.80
2017,05,21,10,17,20.80
2017,05,21,10,18,20.70
2017,05,21,10,19,20.70
2017,05,21,10,20,20.70
2017,05,21,10,21,20.70
2017,05,21,10,22,20.70
2017,05,21,10,23,20.70
2017,05,21,10,24,20.70
2017,05,21,10,25,20.70
2017,05,21,10,26,20.80
2017,05,21,10,27,20.90
2017,05,21,10,28,20.90
2017,05,21,10,29,20.90
2017,05,21,10,30,20.80
2017,05,21,10,31,20.80
2017,05,21,10,32,20.70
2017,05,21,10,33,20.60
2017,05,21,10,34,20.60
2017,05,21,10,35,20.60
2017,05,21,10,36,20.70
2017,05,21,10,37,20.60
2017,05,21,10,38,20.60
2017,05,21,10,39,20.60
2017,05,21,10,40,20.60
2017,05,21,10,41,20.60
2017,05,21,10,42,20.70
2017,05,21,10,43,20.70
2017,05,21,10,44,20.70
2017,05,21,10,45,20.80
2017,05,21,10,46,20.80
2017,05,21,10,47,20.80
2017,05,21,10,48,20.80
2017,05,21,10,49,20.80
2017,05,21,10,50,20.80
2017,05,21,10,51,20.80
2017,05,21,10,52,20.80
2017,05,21,10,53,20.80
2017,05,21,10,54,20.80
2017,05,21,10,55,20.70
2017,05,21,10,56,20.70
2017,05,21,10,57,20.70
2017,05,21,10,58,20.80
2017,05,21,10,59,20.80
2017,05,21,11,00,20.90
2017,05,21,11,01,20.90
2017,05,21,11,02,21.00
2017,05,21,11,03,21.00
2017,05,21,11,04,21.00
2017,05,21,11,05,21.00
2017,05,21,11,06,21.10
2017,05,21,11,07,21.00
2017,05,21,11,08,21.00
2017,05,21,11,09,21.00
2017,05,21,11,10,21.10
2017,05,21,11,11,21.10
2017,05,21,11,12,21.20
2017,05,21,11,13,21.30
2017,05,21,11,14,21.40
2017,05,21,11,15,21.40
2017,05,21,11,16,21.40
2017,05,21,11,17,21.40
2017,05,21,11,18,21.40
2017,05,21,11,19,21.50
2017,05,21,11,20,21.50
2017,05,21,11,21,21.60
2017,05,21,11,22,21.60
2017,05,21,11,23,21.50
2017,05,21,11,24,21.40
2017,05,21,11,25,21.40
2017,05,21,11,26,21.40
2017,05,21,11,27,21.40
2017,05,21,11,28,21.40
2017,05,21,11,29,21.40
2017,05,21,11,30,21.40
2017,05,21,11,31,21.40
2017,05,21,11,32,21.30
2017,05,21,11,33,21.20
2017,05,21,11,34,21.20
2017,05,21,11,35,21.20
2017,05,21,11,36,21.30
2017,05,21,11,37,21.30
2017,05,21,11,38,21.40
2017,05,21,11,39,21.40
2017,05,21,11,40,21.40
2017,05,21,11,41,21.50
2017,05,21,11,42,21.50
2017,05,21,11,43,21.60
2017,05,21,11,44,21.70
2017,05,21,11,45,21.70
2017,05,21,11,46,21.70
2017,05,21,11,47,21.80
2017,05,21,11,48,21.80
2017,05,21,11,49,21.80
2017,05,21,11,50,21.80
2017,05,21,11,51,21.80
2017,05,21,11,52,21.90
2017,05,21,11,53,21.90
2017,05,21,11,54,21.90
2017,05,21,11,55,21.90
2017,05,21,11,56,21.90
2017,05,21,11,57,21.90
2017,05,21,11,58,22.00
2017,05,21,11,59,22.00
2017,05,21,12,00,22.00
2017,05,21,12,01,22.00
2017,05,21,12,02,22.00
2017,05,21,12,03,22.00
2017,05,21,12,04,22.10
2017,05,21,12,05,22.10
2017,05,21,12,06,22.20
2017,05,21,12,07,22.20
2017,05,21,12,08,22.20
2017,05,21,12,09,22.20
2017,05,21,12,10,22.30
2017,05,21,12,11,22.30
2017,05,21,12,12,22.30
2017,05,21,12,13,22.30
2017,05,21,12,14,22.40
2017,05,21,12,15,22.40
2017,05,21,12,16,22.50
2017,05,21,12,17,22.50
2017,05,21,12,18,22.50
2017,05,21,12,19,22.50
2017,05,21,12,20,22.50
2017,05,21,12,21,22.50
2017,05,21,12,22,22.40
2017,05,21,12,23,22.40
2017,05,21,12,24,22.40
2017,05,21,12,25,22.40
2017,05,21,12,26,22.50
2017,05,21,12,27,22.60
2017,05,21,12,28,22.60
2017,05,21,12,29,22.60
2017,05,21,12,30,22.60
2017,05,21,12,31,22.70
2017,05,21,12,32,22.80
2017,05,21,12,33,22.90
2017,05,21,12,34,22.90
2017,05,21,12,35,23.00
2017,05,21,12,36,23.10
2017,05,21,12,37,23.10
2017,05,21,12,38,23.00
2017,05,21,12,39,23.00
2017,05,21,12,40,23.00
2017,05,21,12,41,23.00
2017,05,21,12,42,23.10
2017,05,21,12,43,23.00
2017,05,21,12,44,23.00
2017,05,21,12,45,23.00
2017,05,21,12,46,23.00
2017,05,21,12,47,22.90
2017,05,21,12,48,23.00
2017,05,21,12,49,23.10
2017,05,21,12,50,23.10
2017,05,21,12,51,23.10
2017,05,21,12,52,23.10
2017,05,21,12,53,23.10
2017,05,21,12,54,23.10
2017,05,21,12,55,23.20
2017,05,21,12,56,23.20
2017,05,21,12,57,23.20
2017,05,21,12,58,23.20
2017,05,21,12,59,23.20
2017,05,21,13,00,23.30
2017,05,21,13,01,23.40
2017,05,21,13,02,23.50
2017,05,21,13,03,23.60
2017,05,21,13,04,23.60
2017,05,21,13,05,23.70
2017,05,21,13,06,23.70
2017,05,21,13,07,23.70
2017,05,21,13,08,23.70
2017,05,21,13,09,23.70
2017,05,21,13,10,23.80
2017,05,21,13,11,23.60
2017,05,21,13,12,23.50
2017,05,21,13,13,23.30
2017,05,21,13,14,23.20
2017,05,21,13,15,23.20
2017,05,21,13,16,23.30
2017,05,21,13,17,23.40
2017,05,21,13,18,23.50
2017,05,21,13,19,23.60
2017,05,21,13,20,23.60
2017,05,21,13,21,23.70
2017,05,21,13,22,23.80
2017,05,21,13,23,23.80
2017,05,21,13,24,23.90
2017,05,21,13,25,23.90
2017,05,21,13,26,23.90
2017,05,21,13,27,23.90
2017,05,21,13,28,23.90
2017,05,21,13,29,23.90
2017,05,21,13,30,24.00
2017,05,21,13,31,24.10
2017,05,21,13,32,24.10
2017,05,21,13,33,24.10
2017,05,21,13,34,24.20
2017,05,21,13,35,24.30
2017,05,21,13,36,24.40
2017,05,21,13,37,24.50
2017,05,21,13,38,24.60
2017,05,21,13,39,24.70
2017,05,21,13,40,24.60
2017,05,21,13,41,24.60
2017,05,21,13,42,24.70
2017,05,21,13,43,24.70
2017,05,21,13,44,24.80
2017,05,21,13,45,24.80
2017,05,21,13,46,24.80
2017,05,21,13,47,24.90
2017,05,21,13,48,24.90
2017,05,21,13,49,24.90
2017,05,21,13,50,24.90
2017,05,21,13,51,25.00
2017,05,21,13,52,25.00
2017,05,21,13,53,25.00
2017,05,21,13,54,25.10
2017,05,21,13,55,25.10
2017,05,21,13,56,25.00
2017,05,21,13,57,24.90
2017,05,21,13,58,24.90
2017,05,21,13,59,24.90
2017,05,21,14,00,24.90
2017,05,21,14,01,24.90
2017,05,21,14,02,25.00
2017,05,21,14,03,25.00
2017,05,21,14,04,25.00
2017,05,21,14,05,24.90
2017,05,21,14,06,24.90
2017,05,21,14,07,24.90
2017,05,21,14,08,24.90
2017,05,21,14,09,24.80
2017,05,21,14,10,24.80
2017,05,21,14,11,24.80
2017,05,21,14,12,24.70
2017,05,21,14,13,24.70
2017,05,21,14,14,24.60
2017,05,21,14,15,24.50
2017,05,21,14,16,24.50
2017,05,21,14,17,24.40
2017,05,21,14,18,24.40
2017,05,21,14,19,24.40
2017,05,21,14,20,24.40
2017,05,21,14,21,24.40
2017,05,21,14,22,24.40
2017,05,21,14,23,24.40
2017,05,21,14,24,24.40
2017,05,21,14,25,24.40
2017,05,21,14,26,24.40
2017,05,21,14,27,24.50
2017,05,21,14,28,24.50
2017,05,21,14,29,24.60
2017,05,21,14,30,24.60
2017,05,21,14,31,24.60
2017,05,21,14,32,24.70
2017,05,21,14,33,24.70
2017,05,21,14,34,24.80
2017,05,21,14,35,24.80
2017,05,21,14,36,24.90
2017,05,21,14,37,25.00
2017,05,21,14,38,25.00
2017,05,21,14,39,25.10
2017,05,21,14,40,25.20
2017,05,21,14,41,25.30
2017,05,21,14,42,25.40
2017,05,21,14,43,25.40
2017,05,21,14,44,25.40
2017,05,21,14,45,25.40
2017,05,21,14,46,25.40
2017,05,21,14,47,25.40
2017,05,21,14,48,25.40
2017,05,21,14,49,25.30
2017,05,21,14,50,25.30
2017,05,21,14,51,25.30
2017,05,21,14,52,25.30
2017,05,21,14,53,25.30
2017,05,21,14,54,25.20
2017,05,21,14,55,25.20
2017,05,21,14,56,25.20
2017,05,21,14,57,25.20
2017,05,21,14,58,25.20
2017,05,21,14,59,25.20
2017,05,21,15,00,25.30
2017,05,21,15,01,25.30
2017,05,21,15,02,25.40
2017,05,21,15,03,25.40
2017,05,21,15,04,25.50
2017,05,21,15,05,25.50
2017,05,21,15,06,25.50
2017,05,21,15,07,25.50
2017,05,21,15,08,25.50
2017,05,21,15,09,25.50
2017,05,21,15,10,25.60
2017,05,21,15,11,25.60
2017,05,21,15,12,25.60
2017,05,21,15,13,25.70
2017,05,21,15,14,25.70
2017,05,21,15,15,25.70
2017,05,21,15,16,25.70
2017,05,21,15,17,25.70
2017,05,21,15,18,25.70
2017,05,21,15,19,25.70
2017,05,21,15,20,25.70
2017,05,21,15,21,25.80
2017,05,21,15,22,25.80
2017,05,21,15,23,25.80
2017,05,21,15,24,25.80
2017,05,21,15,25,25.80
2017,05,21,15,26,25.80
2017,05,21,15,27,25.80
2017,05,21,15,28,25.80
2017,05,21,15,29,25.80
2017,05,21,15,30,25.80
2017,05,21,15,31,25.70
2017,05,21,15,32,25.60
2017,05,21,15,33,25.50
2017,05,21,15,34,25.40
2017,05,21,15,35,25.40
2017,05,21,15,36,25.30
2017,05,21,15,37,25.30
2017,05,21,15,38,25.20
2017,05,21,15,39,25.20
2017,05,21,15,40,25.20
2017,05,21,15,41,25.20
2017,05,21,15,42,25.20
2017,05,21,15,43,25.20
2017,05,21,15,44,25.20
2017,05,21,15,45,25.30
2017,05,21,15,46,25.30
2017,05,21,15,47,25.30
2017,05,21,15,48,25.40
2017,05,21,15,49,25.40
2017,05,21,15,50,25.40
2017,05,21,15,51,25.50
2017,05,21,15,52,25.50
2017,05,21,15,53,25.60
2017,05,21,15,54,25.60
2017,05,21,15,55,25.50
2017,05,21,15,56,25.50
2017,05,21,15,57,25.50
2017,05,21,15,58,25.50
2017,05,21,15,59,25.50
2017,05,21,16,00,25.40
2017,05,21,16,01,25.50
2017,05,21,16,02,25.50
2017,05,21,16,03,25.60
2017,05,21,16,04,25.60
2017,05,21,16,05,25.70
2017,05,21,16,06,25.70
2017,05,21,16,07,25.70
2017,05,21,16,08,25.70
2017,05,21,16,09,25.70
2017,05,21,16,10,25.80
2017,05,21,16,11,25.80
2017,05,21,16,12,25.80
2017,05,21,16,13,25.80
2017,05,21,16,14,25.70
2017,05,21,16,15,25.60
2017,05,21,16,16,25.60
2017,05,21,16,17,25.50
2017,05,21,16,18,25.50
2017,05,21,16,19,25.40
2017,05,21,16,20,25.50
2017,05,21,16,21,25.50
2017,05,21,16,22,25.60
2017,05,21,16,23,25.60
2017,05,21,16,24,25.60
2017,05,21,16,25,25.70
2017,05,21,16,26,25.60
2017,05,21,16,27,25.60
2017,05,21,16,28,25.60
2017,05,21,16,29,25.60
2017,05,21,16,30,25.50
2017,05,21,16,31,25.50
2017,05,21,16,32,25.50
2017,05,21,16,33,25.40
2017,05,21,16,34,25.40
2017,05,21,16,35,25.40
2017,05,21,16,36,25.40
2017,05,21,16,37,25.30
2017,05,21,16,38,25.30
2017,05,21,16,39,25.20
2017,05,21,16,40,25.20
2017,05,21,16,41,25.20
2017,05,21,16,42,25.20
2017,05,21,16,43,25.20
2017,05,21,16,44,25.10
2017,05,21,16,45,25.10
2017,05,21,16,46,25.00
2017,05,21,16,47,24.90
2017,05,21,16,48,24.90
2017,05,21,16,49,24.80
2017,05,21,16,50,24.80
2017,05,21,16,51,24.70
2017,05,21,16,52,24.70
2017,05,21,16,53,24.60
2017,05,21,16,54,24.50
2017,05,21,16,55,24.50
2017,05,21,16,56,24.50
2017,05,21,16,57,24.40
2017,05,21,16,58,24.40
2017,05,21,16,59,24.30
2017,05,21,17,00,24.30
2017,05,21,17,01,24.30
2017,05,21,17,02,24.30
2017,05,21,17,03,24.20
2017,05,21,17,04,24.20
2017,05,21,17,05,24.10
2017,05,21,17,06,24.10
2017,05,21,17,07,24.10
2017,05,21,17,08,24.00
2017,05,21,17,09,24.00
2017,05,21,17,10,24.00
2017,05,21,17,11,24.00
2017,05,21,17,12,24.00
2017,05,21,17,13,24.00
2017,05,21,17,14,24.00
2017,05,21,17,15,24.10
2017,05,21,17,16,24.10
2017,05,21,17,17,24.10
2017,05,21,17,18,24.00
2017,05,21,17,19,24.00
2017,05,21,17,20,23.90
2017,05,21,17,21,23.90
2017,05,21,17,22,23.90
2017,05,21,17,23,23.90
2017,05,21,17,24,23.80
2017,05,21,17,25,23.80
2017,05,21,17,26,23.80
2017,05,21,17,27,23.80
2017,05,21,17,28,23.80
2017,05,21,17,29,23.80
2017,05,21,17,30,23.80
2017,05,21,17,31,23.80
2017,05,21,17,32,23.80
2017,05,21,17,33,23.80